Tracking 27428 objects as of 31-May-2023
HD Live streaming from Space Station
objects crossing your sky now

COSMOS 2318 (GLONASS)

Track COSMOS 2318 (GLONASS) now!
COSMOS 2318 (GLONASS) is classified as:


NORAD ID: 23622
Int'l Code: 1995-037C
Perigee: 19,092.4 km
Apogee: 19,181.6 km
Inclination: 65.5 °
Period: 675.7 minutes
Semi major axis: 25508 km
RCS: 3.5243 m2 (large)
Launch date: July 24, 1995
Source: Commonwealth of Independent States (former USSR) (CIS)
Launch site: TYURATAM MISSILE AND SPACE COMPLEX (TTMTR)
Your satellite tracking list
Your tracking list is empty




NASA's NSSDC Master Catalog

Two Line Element Set (TLE):
1 23622U 95037C   23150.92153990  .00000011  00000-0  00000-0 0  9990
2 23622  65.5199 238.9876 0017485  82.9852 273.1507  2.13101836216508
Source of the keplerian elements: AFSPC